Location: Kernascl�den
(48.0062°N, 3.3198°W)
Time: 16:47:55
(UTC+00:00)

CSL-04 Rocket - Pass Details

Date: 21 January 2021
Orbit: 806 x 860 km, 98.9° (Epoch: 01 March)

Event Time Altitude Azimuth Distance (km) Brightness Sun altitude
Rises 18:15:39 0° 135° (SE) 3,360 6.5 -13.1°
Reaches altitude 10° 18:18:09 10° 126° (SE) 2,439 5.7 -13.5°
Maximum altitude 18:22:59 34° 63° (ENE) 1,353 4.3 -14.2°
Drops below altitude 10° 18:27:52 10° 0° (N) 2,484 6.0 -15.0°
Sets 18:30:27 0° 352° (N) 3,431 6.8 -15.5°
